owner,sensor,date,latitude,longitude,sea_surface_height_above_sea_level,qcFlag 
WAVCIS,ioos:station:WAVCIS:CSI16:1,2009-12-01T00:00:00Z,29.4012,-89.0355,9.679,11111222 
WAVCIS,ioos:station:WAVCIS:CSI16:1,2009-12-01T01:00:00Z,29.4012,-89.0355,9.702,11111222 
WAVCIS,ioos:station:WAVCIS:CSI16:1,2009-12-01T02:00:00Z,29.4012,-89.0355,9.671,11111222 
WAVCIS,ioos:station:WAVCIS:CSI16:1,2009-12-01T03:00:00Z,29.4012,-89.0355,9.645,11111222 
WAVCIS,ioos:station:WAVCIS:CSI16:1,2009-12-01T04:00:00Z,29.4012,-89.0355,9.564,11111222 
WAVCIS,ioos:station:WAVCIS:CSI16:1,2009-12-01T05:00:00Z,29.4012,-89.0355,9.518,11111222 
WAVCIS,ioos:station:WAVCIS:CSI16:1,2009-12-01T06:00:00Z,29.4012,-89.0355,9.411,11111222 
WAVCIS,ioos:station:WAVCIS:CSI16:1,2009-12-01T07:00:00Z,29.4012,-89.0355,9.326,11111222 
WAVCIS,ioos:station:WAVCIS:CSI16:1,2009-12-01T08:00:00Z,29.4012,-89.0355,9.281,11111222 
WAVCIS,ioos:station:WAVCIS:CSI16:1,2009-12-01T09:00:00Z,29.4012,-89.0355,9.211,11111222 
WAVCIS,ioos:station:WAVCIS:CSI16:1,2009-12-01T10:00:00Z,29.4012,-89.0355,9.179,11111222 
WAVCIS,ioos:station:WAVCIS:CSI16:1,2009-12-01T11:00:00Z,29.4012,-89.0355,9.168,11111222 
WAVCIS,ioos:station:WAVCIS:CSI16:1,2009-12-01T12:00:00Z,29.4012,-89.0355,9.168,11111222 
WAVCIS,ioos:station:WAVCIS:CSI16:1,2009-12-01T13:00:00Z,29.4012,-89.0355,9.198,11111222 
WAVCIS,ioos:station:WAVCIS:CSI16:1,2009-12-01T14:00:00Z,29.4012,-89.0355,9.256,11111222 
WAVCIS,ioos:station:WAVCIS:CSI16:1,2009-12-01T15:00:00Z,29.4012,-89.0355,9.319,11111222 
WAVCIS,ioos:station:WAVCIS:CSI16:1,2009-12-01T16:00:00Z,29.4012,-89.0355,9.366,11111222 
WAVCIS,ioos:station:WAVCIS:CSI16:1,2009-12-01T17:00:00Z,29.4012,-89.0355,9.43,11111222 
WAVCIS,ioos:station:WAVCIS:CSI16:1,2009-12-01T18:00:00Z,29.4012,-89.0355,9.485,11111222 
WAVCIS,ioos:station:WAVCIS:CSI16:1,2009-12-01T19:00:00Z,29.4012,-89.0355,9.541,11111222 
WAVCIS,ioos:station:WAVCIS:CSI16:1,2009-12-01T20:00:00Z,29.4012,-89.0355,9.582,11111222 
WAVCIS,ioos:station:WAVCIS:CSI16:1,2009-12-01T21:00:00Z,29.4012,-89.0355,9.669,11111222 
WAVCIS,ioos:station:WAVCIS:CSI16:1,2009-12-01T22:00:00Z,29.4012,-89.0355,9.761,11111222 
WAVCIS,ioos:station:WAVCIS:CSI16:1,2009-12-01T23:00:00Z,29.4012,-89.0355,9.909,11111222 
WAVCIS,ioos:station:WAVCIS:CSI16:1,2009-12-02T00:00:00Z,29.4012,-89.0355,9.944,11111222 
WAVCIS,ioos:station:WAVCIS:CSI16:1,2009-12-02T01:00:00Z,29.4012,-89.0355,9.936,11111222 
WAVCIS,ioos:station:WAVCIS:CSI16:1,2009-12-02T02:00:00Z,29.4012,-89.0355,9.97,11111222 
WAVCIS,ioos:station:WAVCIS:CSI16:1,2009-12-02T03:00:00Z,29.4012,-89.0355,10.076,11144222 
WAVCIS,ioos:station:WAVCIS:CSI16:1,2009-12-02T04:00:00Z,29.4012,-89.0355,9.93,11111222 
WAVCIS,ioos:station:WAVCIS:CSI16:1,2009-12-02T05:00:00Z,29.4012,-89.0355,9.651,11111222 
WAVCIS,ioos:station:WAVCIS:CSI16:1,2009-12-02T06:00:00Z,29.4012,-89.0355,9.584,11111222 
WAVCIS,ioos:station:WAVCIS:CSI16:1,2009-12-02T07:00:00Z,29.4012,-89.0355,9.53,11111222 
WAVCIS,ioos:station:WAVCIS:CSI16:1,2009-12-02T08:00:00Z,29.4012,-89.0355,9.374,11111222 
WAVCIS,ioos:station:WAVCIS:CSI16:1,2009-12-02T09:00:00Z,29.4012,-89.0355,9.342,11111222 
WAVCIS,ioos:station:WAVCIS:CSI16:1,2009-12-02T10:00:00Z,29.4012,-89.0355,9.207,11111222 
WAVCIS,ioos:station:WAVCIS:CSI16:1,2009-12-02T11:00:00Z,29.4012,-89.0355,9.156,11111222 
WAVCIS,ioos:station:WAVCIS:CSI16:1,2009-12-02T12:00:00Z,29.4012,-89.0355,9.191,11111222 
WAVCIS,ioos:station:WAVCIS:CSI16:1,2009-12-02T13:00:00Z,29.4012,-89.0355,9.215,11111222 
WAVCIS,ioos:station:WAVCIS:CSI16:1,2009-12-02T14:00:00Z,29.4012,-89.0355,9.195,11111222 
WAVCIS,ioos:station:WAVCIS:CSI16:1,2009-12-02T15:00:00Z,29.4012,-89.0355,9.162,11111222 
WAVCIS,ioos:station:WAVCIS:CSI16:1,2009-12-02T16:00:00Z,29.4012,-89.0355,9.222,11111222 
WAVCIS,ioos:station:WAVCIS:CSI16:1,2009-12-02T17:00:00Z,29.4012,-89.0355,9.315,11111222 
WAVCIS,ioos:station:WAVCIS:CSI16:1,2009-12-02T18:00:00Z,29.4012,-89.0355,9.352,11111222 
WAVCIS,ioos:station:WAVCIS:CSI16:1,2009-12-02T19:00:00Z,29.4012,-89.0355,9.342,11111222 
WAVCIS,ioos:station:WAVCIS:CSI16:1,2009-12-02T20:00:00Z,29.4012,-89.0355,9.409,11111222 
WAVCIS,ioos:station:WAVCIS:CSI16:1,2009-12-02T21:00:00Z,29.4012,-89.0355,9.501,11111222 
WAVCIS,ioos:station:WAVCIS:CSI16:1,2009-12-02T22:00:00Z,29.4012,-89.0355,9.575,11111222 
WAVCIS,ioos:station:WAVCIS:CSI16:1,2009-12-02T23:00:00Z,29.4012,-89.0355,9.61,11111222 
WAVCIS,ioos:station:WAVCIS:CSI16:1,2009-12-03T00:00:00Z,29.4012,-89.0355,9.677,11111222 
WAVCIS,ioos:station:WAVCIS:CSI16:1,2009-12-03T01:00:00Z,29.4012,-89.0355,9.68,11111222 
WAVCIS,ioos:station:WAVCIS:CSI16:1,2009-12-03T02:00:00Z,29.4012,-89.0355,9.697,11111222 
WAVCIS,ioos:station:WAVCIS:CSI16:1,2009-12-03T03:00:00Z,29.4012,-89.0355,9.691,11111222 
WAVCIS,ioos:station:WAVCIS:CSI16:1,2009-12-03T04:00:00Z,29.4012,-89.0355,9.661,11111222 
WAVCIS,ioos:station:WAVCIS:CSI16:1,2009-12-03T05:00:00Z,29.4012,-89.0355,9.62,11111222 
WAVCIS,ioos:station:WAVCIS:CSI16:1,2009-12-03T06:00:00Z,29.4012,-89.0355,9.552,11111222 
WAVCIS,ioos:station:WAVCIS:CSI16:1,2009-12-03T07:00:00Z,29.4012,-89.0355,9.461,11111222 
WAVCIS,ioos:station:WAVCIS:CSI16:1,2009-12-03T08:00:00Z,29.4012,-89.0355,9.324,11111222 
WAVCIS,ioos:station:WAVCIS:CSI16:1,2009-12-03T09:00:00Z,29.4012,-89.0355,9.219,11111222 
WAVCIS,ioos:station:WAVCIS:CSI16:1,2009-12-03T10:00:00Z,29.4012,-89.0355,9.096,11111222 
WAVCIS,ioos:station:WAVCIS:CSI16:1,2009-12-03T11:00:00Z,29.4012,-89.0355,9.045,11111222 
WAVCIS,ioos:station:WAVCIS:CSI16:1,2009-12-03T12:00:00Z,29.4012,-89.0355,9.024,11111222 
WAVCIS,ioos:station:WAVCIS:CSI16:1,2009-12-03T13:00:00Z,29.4012,-89.0355,9.036,11111222 
WAVCIS,ioos:station:WAVCIS:CSI16:1,2009-12-03T14:00:00Z,29.4012,-89.0355,9.054,11111222 
WAVCIS,ioos:station:WAVCIS:CSI16:1,2009-12-03T15:00:00Z,29.4012,-89.0355,9.101,11111222 
WAVCIS,ioos:station:WAVCIS:CSI16:1,2009-12-03T16:00:00Z,29.4012,-89.0355,9.147,11111222 
WAVCIS,ioos:station:WAVCIS:CSI16:1,2009-12-03T17:00:00Z,29.4012,-89.0355,9.233,11111222 
WAVCIS,ioos:station:WAVCIS:CSI16:1,2009-12-03T18:00:00Z,29.4012,-89.0355,9.306,11111222 
WAVCIS,ioos:station:WAVCIS:CSI16:1,2009-12-03T19:00:00Z,29.4012,-89.0355,9.376,11111222 
WAVCIS,ioos:station:WAVCIS:CSI16:1,2009-12-03T20:00:00Z,29.4012,-89.0355,9.452,11111222 
WAVCIS,ioos:station:WAVCIS:CSI16:1,2009-12-03T21:00:00Z,29.4012,-89.0355,9.528,11111222 
WAVCIS,ioos:station:WAVCIS:CSI16:1,2009-12-03T22:00:00Z,29.4012,-89.0355,9.59,11111222 
WAVCIS,ioos:station:WAVCIS:CSI16:1,2009-12-03T23:00:00Z,29.4012,-89.0355,9.676,11111222 
WAVCIS,ioos:station:WAVCIS:CSI16:1,2009-12-04T00:00:00Z,29.4012,-89.0355,9.756,11111222 
WAVCIS,ioos:station:WAVCIS:CSI16:1,2009-12-04T01:00:00Z,29.4012,-89.0355,9.805,11111222 
WAVCIS,ioos:station:WAVCIS:CSI16:1,2009-12-04T02:00:00Z,29.4012,-89.0355,9.853,11111222 
WAVCIS,ioos:station:WAVCIS:CSI16:1,2009-12-04T03:00:00Z,29.4012,-89.0355,9.869,11111222 
WAVCIS,ioos:station:WAVCIS:CSI16:1,2009-12-04T04:00:00Z,29.4012,-89.0355,9.819,11111222 
WAVCIS,ioos:station:WAVCIS:CSI16:1,2009-12-04T05:00:00Z,29.4012,-89.0355,9.787,11111222 
WAVCIS,ioos:station:WAVCIS:CSI16:1,2009-12-04T06:00:00Z,29.4012,-89.0355,9.717,11111222 
WAVCIS,ioos:station:WAVCIS:CSI16:1,2009-12-04T07:00:00Z,29.4012,-89.0355,9.626,11111222 
WAVCIS,ioos:station:WAVCIS:CSI16:1,2009-12-04T08:00:00Z,29.4012,-89.0355,9.519,11111222 
WAVCIS,ioos:station:WAVCIS:CSI16:1,2009-12-04T09:00:00Z,29.4012,-89.0355,9.394,11111222 
WAVCIS,ioos:station:WAVCIS:CSI16:1,2009-12-04T10:00:00Z,29.4012,-89.0355,9.288,11111222 
WAVCIS,ioos:station:WAVCIS:CSI16:1,2009-12-04T11:00:00Z,29.4012,-89.0355,9.209,11111222 
WAVCIS,ioos:station:WAVCIS:CSI16:1,2009-12-04T12:00:00Z,29.4012,-89.0355,9.18,11111222 
WAVCIS,ioos:station:WAVCIS:CSI16:1,2009-12-04T13:00:00Z,29.4012,-89.0355,9.164,11111222 
WAVCIS,ioos:station:WAVCIS:CSI16:1,2009-12-04T14:00:00Z,29.4012,-89.0355,9.135,11111222 
WAVCIS,ioos:station:WAVCIS:CSI16:1,2009-12-04T15:00:00Z,29.4012,-89.0355,9.147,11111222 
WAVCIS,ioos:station:WAVCIS:CSI16:1,2009-12-04T16:00:00Z,29.4012,-89.0355,9.157,11111222 
WAVCIS,ioos:station:WAVCIS:CSI16:1,2009-12-04T17:00:00Z,29.4012,-89.0355,9.216,11111222 
WAVCIS,ioos:station:WAVCIS:CSI16:1,2009-12-04T18:00:00Z,29.4012,-89.0355,9.232,11111222 
WAVCIS,ioos:station:WAVCIS:CSI16:1,2009-12-04T19:00:00Z,29.4012,-89.0355,9.283,11111222 
WAVCIS,ioos:station:WAVCIS:CSI16:1,2009-12-04T20:00:00Z,29.4012,-89.0355,9.355,11111222 
WAVCIS,ioos:station:WAVCIS:CSI16:1,2009-12-04T21:00:00Z,29.4012,-89.0355,9.387,11111222 
WAVCIS,ioos:station:WAVCIS:CSI16:1,2009-12-04T22:00:00Z,29.4012,-89.0355,9.469,11111222 
WAVCIS,ioos:station:WAVCIS:CSI16:1,2009-12-04T23:00:00Z,29.4012,-89.0355,9.546,11111222 
WAVCIS,ioos:station:WAVCIS:CSI16:1,2009-12-05T00:00:00Z,29.4012,-89.0355,9.627,11111222 
WAVCIS,ioos:station:WAVCIS:CSI16:1,2009-12-05T01:00:00Z,29.4012,-89.0355,9.711,11111222 
WAVCIS,ioos:station:WAVCIS:CSI16:1,2009-12-05T02:00:00Z,29.4012,-89.0355,9.785,11111222 
WAVCIS,ioos:station:WAVCIS:CSI16:1,2009-12-05T03:00:00Z,29.4012,-89.0355,9.847,11111222 
WAVCIS,ioos:station:WAVCIS:CSI16:1,2009-12-05T04:00:00Z,29.4012,-89.0355,9.767,11111222 
WAVCIS,ioos:station:WAVCIS:CSI16:1,2009-12-05T05:00:00Z,29.4012,-89.0355,9.758,11111222 
WAVCIS,ioos:station:WAVCIS:CSI16:1,2009-12-05T06:00:00Z,29.4012,-89.0355,9.725,11111222 
WAVCIS,ioos:station:WAVCIS:CSI16:1,2009-12-05T07:00:00Z,29.4012,-89.0355,9.665,11111222 
WAVCIS,ioos:station:WAVCIS:CSI16:1,2009-12-05T08:00:00Z,29.4012,-89.0355,9.613,11111222 
WAVCIS,ioos:station:WAVCIS:CSI16:1,2009-12-05T09:00:00Z,29.4012,-89.0355,9.511,11111222 
WAVCIS,ioos:station:WAVCIS:CSI16:1,2009-12-05T10:00:00Z,29.4012,-89.0355,9.401,11111222 
WAVCIS,ioos:station:WAVCIS:CSI16:1,2009-12-05T11:00:00Z,29.4012,-89.0355,9.309,11111222 
WAVCIS,ioos:station:WAVCIS:CSI16:1,2009-12-05T12:00:00Z,29.4012,-89.0355,9.228,11111222 
WAVCIS,ioos:station:WAVCIS:CSI16:1,2009-12-05T13:00:00Z,29.4012,-89.0355,9.194,11111222 
WAVCIS,ioos:station:WAVCIS:CSI16:1,2009-12-05T14:00:00Z,29.4012,-89.0355,9.181,11111222 
WAVCIS,ioos:station:WAVCIS:CSI16:1,2009-12-05T15:00:00Z,29.4012,-89.0355,9.153,11111222 
WAVCIS,ioos:station:WAVCIS:CSI16:1,2009-12-05T16:00:00Z,29.4012,-89.0355,9.146,11111222 
WAVCIS,ioos:station:WAVCIS:CSI16:1,2009-12-05T17:00:00Z,29.4012,-89.0355,9.158,11111222 
WAVCIS,ioos:station:WAVCIS:CSI16:1,2009-12-05T18:00:00Z,29.4012,-89.0355,9.187,11111222 
WAVCIS,ioos:station:WAVCIS:CSI16:1,2009-12-05T19:00:00Z,29.4012,-89.0355,9.213,11111222 
WAVCIS,ioos:station:WAVCIS:CSI16:1,2009-12-05T20:00:00Z,29.4012,-89.0355,9.26,11111222 
WAVCIS,ioos:station:WAVCIS:CSI16:1,2009-12-05T21:00:00Z,29.4012,-89.0355,9.297,11111222 
WAVCIS,ioos:station:WAVCIS:CSI16:1,2009-12-05T22:00:00Z,29.4012,-89.0355,9.342,11111222 
WAVCIS,ioos:station:WAVCIS:CSI16:1,2009-12-05T23:00:00Z,29.4012,-89.0355,9.395,11111222 
WAVCIS,ioos:station:WAVCIS:CSI16:1,2009-12-06T00:00:00Z,29.4012,-89.0355,9.455,11111222 
WAVCIS,ioos:station:WAVCIS:CSI16:1,2009-12-06T01:00:00Z,29.4012,-89.0355,9.508,11111222 
WAVCIS,ioos:station:WAVCIS:CSI16:1,2009-12-06T02:00:00Z,29.4012,-89.0355,9.564,11111222 
WAVCIS,ioos:station:WAVCIS:CSI16:1,2009-12-06T03:00:00Z,29.4012,-89.0355,9.614,11111222 
WAVCIS,ioos:station:WAVCIS:CSI16:1,2009-12-06T04:00:00Z,29.4012,-89.0355,9.632,11111222 
WAVCIS,ioos:station:WAVCIS:CSI16:1,2009-12-06T05:00:00Z,29.4012,-89.0355,9.614,11111222 
WAVCIS,ioos:station:WAVCIS:CSI16:1,2009-12-06T06:00:00Z,29.4012,-89.0355,9.61,11111222 
WAVCIS,ioos:station:WAVCIS:CSI16:1,2009-12-06T07:00:00Z,29.4012,-89.0355,9.586,11111222 
WAVCIS,ioos:station:WAVCIS:CSI16:1,2009-12-06T08:00:00Z,29.4012,-89.0355,9.536,11111222 
WAVCIS,ioos:station:WAVCIS:CSI16:1,2009-12-06T09:00:00Z,29.4012,-89.0355,9.472,11111222 
WAVCIS,ioos:station:WAVCIS:CSI16:1,2009-12-06T10:00:00Z,29.4012,-89.0355,9.407,11111222 
WAVCIS,ioos:station:WAVCIS:CSI16:1,2009-12-06T11:00:00Z,29.4012,-89.0355,9.326,11111222 
WAVCIS,ioos:station:WAVCIS:CSI16:1,2009-12-06T12:00:00Z,29.4012,-89.0355,9.251,11111222 
WAVCIS,ioos:station:WAVCIS:CSI16:1,2009-12-06T13:00:00Z,29.4012,-89.0355,9.211,11111222 
WAVCIS,ioos:station:WAVCIS:CSI16:1,2009-12-06T14:00:00Z,29.4012,-89.0355,9.204,11111222 
WAVCIS,ioos:station:WAVCIS:CSI16:1,2009-12-06T15:00:00Z,29.4012,-89.0355,9.182,11111222 
WAVCIS,ioos:station:WAVCIS:CSI16:1,2009-12-06T16:00:00Z,29.4012,-89.0355,9.185,11111222 
WAVCIS,ioos:station:WAVCIS:CSI16:1,2009-12-06T17:00:00Z,29.4012,-89.0355,9.205,11111222 
WAVCIS,ioos:station:WAVCIS:CSI16:1,2009-12-06T18:00:00Z,29.4012,-89.0355,9.206,11111222 
WAVCIS,ioos:station:WAVCIS:CSI16:1,2009-12-06T19:00:00Z,29.4012,-89.0355,9.248,11111222 
WAVCIS,ioos:station:WAVCIS:CSI16:1,2009-12-06T20:00:00Z,29.4012,-89.0355,9.285,11111222 
WAVCIS,ioos:station:WAVCIS:CSI16:1,2009-12-06T21:00:00Z,29.4012,-89.0355,9.329,11111222 
WAVCIS,ioos:station:WAVCIS:CSI16:1,2009-12-06T22:00:00Z,29.4012,-89.0355,9.371,11111222 
WAVCIS,ioos:station:WAVCIS:CSI16:1,2009-12-06T23:00:00Z,29.4012,-89.0355,9.412,11111222 
WAVCIS,ioos:station:WAVCIS:CSI16:1,2009-12-07T00:00:00Z,29.4012,-89.0355,9.457,11111222 
WAVCIS,ioos:station:WAVCIS:CSI16:1,2009-12-07T01:00:00Z,29.4012,-89.0355,9.5,11111222 
WAVCIS,ioos:station:WAVCIS:CSI16:1,2009-12-07T02:00:00Z,29.4012,-89.0355,9.534,11111222 
WAVCIS,ioos:station:WAVCIS:CSI16:1,2009-12-07T03:00:00Z,29.4012,-89.0355,9.585,11111222 
WAVCIS,ioos:station:WAVCIS:CSI16:1,2009-12-07T04:00:00Z,29.4012,-89.0355,9.612,11111222 
WAVCIS,ioos:station:WAVCIS:CSI16:1,2009-12-07T05:00:00Z,29.4012,-89.0355,9.62,11111222 
WAVCIS,ioos:station:WAVCIS:CSI16:1,2009-12-07T06:00:00Z,29.4012,-89.0355,9.615,11111222 
WAVCIS,ioos:station:WAVCIS:CSI16:1,2009-12-07T07:00:00Z,29.4012,-89.0355,9.595,11111222 
WAVCIS,ioos:station:WAVCIS:CSI16:1,2009-12-07T08:00:00Z,29.4012,-89.0355,9.565,11111222 
WAVCIS,ioos:station:WAVCIS:CSI16:1,2009-12-07T09:00:00Z,29.4012,-89.0355,9.514,11111222 
WAVCIS,ioos:station:WAVCIS:CSI16:1,2009-12-07T10:00:00Z,29.4012,-89.0355,9.443,11111222 
WAVCIS,ioos:station:WAVCIS:CSI16:1,2009-12-07T11:00:00Z,29.4012,-89.0355,9.389,11111222 
WAVCIS,ioos:station:WAVCIS:CSI16:1,2009-12-07T12:00:00Z,29.4012,-89.0355,9.335,11111222 
WAVCIS,ioos:station:WAVCIS:CSI16:1,2009-12-07T13:00:00Z,29.4012,-89.0355,9.296,11111222 
WAVCIS,ioos:station:WAVCIS:CSI16:1,2009-12-07T14:00:00Z,29.4012,-89.0355,9.279,11111222 
WAVCIS,ioos:station:WAVCIS:CSI16:1,2009-12-07T15:00:00Z,29.4012,-89.0355,9.252,11111222 
WAVCIS,ioos:station:WAVCIS:CSI16:1,2009-12-07T16:00:00Z,29.4012,-89.0355,9.247,11111222 
WAVCIS,ioos:station:WAVCIS:CSI16:1,2009-12-07T17:00:00Z,29.4012,-89.0355,9.241,11111222 
WAVCIS,ioos:station:WAVCIS:CSI16:1,2009-12-07T18:00:00Z,29.4012,-89.0355,9.243,11111222 
WAVCIS,ioos:station:WAVCIS:CSI16:1,2009-12-07T19:00:00Z,29.4012,-89.0355,9.244,11111222 
WAVCIS,ioos:station:WAVCIS:CSI16:1,2009-12-07T20:00:00Z,29.4012,-89.0355,9.262,11111222 
WAVCIS,ioos:station:WAVCIS:CSI16:1,2009-12-07T21:00:00Z,29.4012,-89.0355,9.289,11111222 
WAVCIS,ioos:station:WAVCIS:CSI16:1,2009-12-07T22:00:00Z,29.4012,-89.0355,9.307,11111222 
WAVCIS,ioos:station:WAVCIS:CSI16:1,2009-12-07T23:00:00Z,29.4012,-89.0355,9.341,11111222 
WAVCIS,ioos:station:WAVCIS:CSI16:1,2009-12-08T00:00:00Z,29.4012,-89.0355,9.354,11111222 
WAVCIS,ioos:station:WAVCIS:CSI16:1,2009-12-08T01:00:00Z,29.4012,-89.0355,9.38,11111222 
WAVCIS,ioos:station:WAVCIS:CSI16:1,2009-12-08T02:00:00Z,29.4012,-89.0355,9.411,11111222 
WAVCIS,ioos:station:WAVCIS:CSI16:1,2009-12-08T03:00:00Z,29.4012,-89.0355,9.428,11111222 
WAVCIS,ioos:station:WAVCIS:CSI16:1,2009-12-08T04:00:00Z,29.4012,-89.0355,9.444,11111222 
WAVCIS,ioos:station:WAVCIS:CSI16:1,2009-12-08T05:00:00Z,29.4012,-89.0355,9.451,11111222 
WAVCIS,ioos:station:WAVCIS:CSI16:1,2009-12-08T06:00:00Z,29.4012,-89.0355,9.464,11111222 
WAVCIS,ioos:station:WAVCIS:CSI16:1,2009-12-08T07:00:00Z,29.4012,-89.0355,9.471,11111222 
WAVCIS,ioos:station:WAVCIS:CSI16:1,2009-12-08T08:00:00Z,29.4012,-89.0355,9.446,11111222 
WAVCIS,ioos:station:WAVCIS:CSI16:1,2009-12-08T09:00:00Z,29.4012,-89.0355,9.455,11111222 
WAVCIS,ioos:station:WAVCIS:CSI16:1,2009-12-08T10:00:00Z,29.4012,-89.0355,9.443,11111222 
WAVCIS,ioos:station:WAVCIS:CSI16:1,2009-12-08T11:00:00Z,29.4012,-89.0355,9.412,11111222 
WAVCIS,ioos:station:WAVCIS:CSI16:1,2009-12-08T12:00:00Z,29.4012,-89.0355,9.424,11111222 
WAVCIS,ioos:station:WAVCIS:CSI16:1,2009-12-08T13:00:00Z,29.4012,-89.0355,9.406,11111222 
WAVCIS,ioos:station:WAVCIS:CSI16:1,2009-12-08T14:00:00Z,29.4012,-89.0355,9.417,11111222 
WAVCIS,ioos:station:WAVCIS:CSI16:1,2009-12-08T15:00:00Z,29.4012,-89.0355,9.39,11111222 
WAVCIS,ioos:station:WAVCIS:CSI16:1,2009-12-08T16:00:00Z,29.4012,-89.0355,9.382,11111222 
WAVCIS,ioos:station:WAVCIS:CSI16:1,2009-12-08T17:00:00Z,29.4012,-89.0355,9.399,11111222 
WAVCIS,ioos:station:WAVCIS:CSI16:1,2009-12-08T18:00:00Z,29.4012,-89.0355,9.364,11111222 
WAVCIS,ioos:station:WAVCIS:CSI16:1,2009-12-08T19:00:00Z,29.4012,-89.0355,9.352,11111222 
WAVCIS,ioos:station:WAVCIS:CSI16:1,2009-12-08T20:00:00Z,29.4012,-89.0355,9.359,11111222 
WAVCIS,ioos:station:WAVCIS:CSI16:1,2009-12-08T21:00:00Z,29.4012,-89.0355,9.366,11111222 
WAVCIS,ioos:station:WAVCIS:CSI16:1,2009-12-08T22:00:00Z,29.4012,-89.0355,9.38,11111222 
WAVCIS,ioos:station:WAVCIS:CSI16:1,2009-12-08T23:00:00Z,29.4012,-89.0355,9.398,11111222 
WAVCIS,ioos:station:WAVCIS:CSI16:1,2009-12-09T00:00:00Z,29.4012,-89.0355,9.399,11111222 
WAVCIS,ioos:station:WAVCIS:CSI16:1,2009-12-09T01:00:00Z,29.4012,-89.0355,9.407,11111222 
WAVCIS,ioos:station:WAVCIS:CSI16:1,2009-12-09T02:00:00Z,29.4012,-89.0355,9.407,11111222 
WAVCIS,ioos:station:WAVCIS:CSI16:1,2009-12-09T03:00:00Z,29.4012,-89.0355,9.414,11111222 
WAVCIS,ioos:station:WAVCIS:CSI16:1,2009-12-09T04:00:00Z,29.4012,-89.0355,9.402,11111222 
WAVCIS,ioos:station:WAVCIS:CSI16:1,2009-12-09T05:00:00Z,29.4012,-89.0355,9.392,11111222 
WAVCIS,ioos:station:WAVCIS:CSI16:1,2009-12-09T06:00:00Z,29.4012,-89.0355,9.397,11111222 
WAVCIS,ioos:station:WAVCIS:CSI16:1,2009-12-09T07:00:00Z,29.4012,-89.0355,9.38,11111222 
WAVCIS,ioos:station:WAVCIS:CSI16:1,2009-12-09T08:00:00Z,29.4012,-89.0355,9.367,11111222 
WAVCIS,ioos:station:WAVCIS:CSI16:1,2009-12-09T09:00:00Z,29.4012,-89.0355,9.351,11111222 
WAVCIS,ioos:station:WAVCIS:CSI16:1,2009-12-09T10:00:00Z,29.4012,-89.0355,9.356,11111222 
WAVCIS,ioos:station:WAVCIS:CSI16:1,2009-12-09T11:00:00Z,29.4012,-89.0355,9.339,11111222 
WAVCIS,ioos:station:WAVCIS:CSI16:1,2009-12-09T12:00:00Z,29.4012,-89.0355,9.337,11111222 
WAVCIS,ioos:station:WAVCIS:CSI16:1,2009-12-09T13:00:00Z,29.4012,-89.0355,9.331,11111222 
WAVCIS,ioos:station:WAVCIS:CSI16:1,2009-12-09T14:00:00Z,29.4012,-89.0355,9.333,11111222 
WAVCIS,ioos:station:WAVCIS:CSI16:1,2009-12-09T15:00:00Z,29.4012,-89.0355,9.332,11111222 
WAVCIS,ioos:station:WAVCIS:CSI16:1,2009-12-09T16:00:00Z,29.4012,-89.0355,9.337,11111222 
WAVCIS,ioos:station:WAVCIS:CSI16:1,2009-12-09T17:00:00Z,29.4012,-89.0355,9.34,11111222 
WAVCIS,ioos:station:WAVCIS:CSI16:1,2009-12-09T18:00:00Z,29.4012,-89.0355,9.354,11111222 
WAVCIS,ioos:station:WAVCIS:CSI16:1,2009-12-09T19:00:00Z,29.4012,-89.0355,9.369,11111222 
WAVCIS,ioos:station:WAVCIS:CSI16:1,2009-12-09T20:00:00Z,29.4012,-89.0355,9.372,11111222 
WAVCIS,ioos:station:WAVCIS:CSI16:1,2009-12-09T21:00:00Z,29.4012,-89.0355,9.38,11111222 
WAVCIS,ioos:station:WAVCIS:CSI16:1,2009-12-09T22:00:00Z,29.4012,-89.0355,9.401,11111222 
WAVCIS,ioos:station:WAVCIS:CSI16:1,2009-12-09T23:00:00Z,29.4012,-89.0355,9.405,11111222 
WAVCIS,ioos:station:WAVCIS:CSI16:1,2009-12-10T00:00:00Z,29.4012,-89.0355,9.415,11111222 
WAVCIS,ioos:station:WAVCIS:CSI16:1,2009-12-10T01:00:00Z,29.4012,-89.0355,9.419,11111222 
WAVCIS,ioos:station:WAVCIS:CSI16:1,2009-12-10T02:00:00Z,29.4012,-89.0355,9.406,11111222 
WAVCIS,ioos:station:WAVCIS:CSI16:1,2009-12-10T03:00:00Z,29.4012,-89.0355,9.409,11111222 
WAVCIS,ioos:station:WAVCIS:CSI16:1,2009-12-10T04:00:00Z,29.4012,-89.0355,9.38,11111222 
WAVCIS,ioos:station:WAVCIS:CSI16:1,2009-12-10T05:00:00Z,29.4012,-89.0355,9.339,11111222 
WAVCIS,ioos:station:WAVCIS:CSI16:1,2009-12-10T06:00:00Z,29.4012,-89.0355,9.319,11111222 
WAVCIS,ioos:station:WAVCIS:CSI16:1,2009-12-10T07:00:00Z,29.4012,-89.0355,9.324,11111222 
WAVCIS,ioos:station:WAVCIS:CSI16:1,2009-12-10T08:00:00Z,29.4012,-89.0355,9.324,11111222 
WAVCIS,ioos:station:WAVCIS:CSI16:1,2009-12-10T09:00:00Z,29.4012,-89.0355,9.331,11111222 
WAVCIS,ioos:station:WAVCIS:CSI16:1,2009-12-10T10:00:00Z,29.4012,-89.0355,9.343,11111222 
WAVCIS,ioos:station:WAVCIS:CSI16:1,2009-12-10T11:00:00Z,29.4012,-89.0355,9.358,11111222 
WAVCIS,ioos:station:WAVCIS:CSI16:1,2009-12-10T12:00:00Z,29.4012,-89.0355,9.397,11111222 
WAVCIS,ioos:station:WAVCIS:CSI16:1,2009-12-10T13:00:00Z,29.4012,-89.0355,9.426,11111222 
WAVCIS,ioos:station:WAVCIS:CSI16:1,2009-12-10T14:00:00Z,29.4012,-89.0355,9.456,11111222 
WAVCIS,ioos:station:WAVCIS:CSI16:1,2009-12-10T15:00:00Z,29.4012,-89.0355,9.481,11111222 
WAVCIS,ioos:station:WAVCIS:CSI16:1,2009-12-10T16:00:00Z,29.4012,-89.0355,9.506,11111222 
WAVCIS,ioos:station:WAVCIS:CSI16:1,2009-12-10T17:00:00Z,29.4012,-89.0355,9.521,11111222 
WAVCIS,ioos:station:WAVCIS:CSI16:1,2009-12-10T18:00:00Z,29.4012,-89.0355,9.54,11111222 
WAVCIS,ioos:station:WAVCIS:CSI16:1,2009-12-10T19:00:00Z,29.4012,-89.0355,9.555,11111222 
WAVCIS,ioos:station:WAVCIS:CSI16:1,2009-12-10T20:00:00Z,29.4012,-89.0355,9.566,11111222 
WAVCIS,ioos:station:WAVCIS:CSI16:1,2009-12-10T21:00:00Z,29.4012,-89.0355,9.58,11111222 
WAVCIS,ioos:station:WAVCIS:CSI16:1,2009-12-10T22:00:00Z,29.4012,-89.0355,9.596,11111222 
WAVCIS,ioos:station:WAVCIS:CSI16:1,2009-12-10T23:00:00Z,29.4012,-89.0355,9.6,11111222 
WAVCIS,ioos:station:WAVCIS:CSI16:1,2009-12-11T00:00:00Z,29.4012,-89.0355,9.601,11111222 
WAVCIS,ioos:station:WAVCIS:CSI16:1,2009-12-11T01:00:00Z,29.4012,-89.0355,9.587,11111222 
WAVCIS,ioos:station:WAVCIS:CSI16:1,2009-12-11T02:00:00Z,29.4012,-89.0355,9.551,11111222 
WAVCIS,ioos:station:WAVCIS:CSI16:1,2009-12-11T03:00:00Z,29.4012,-89.0355,9.522,11111222 
WAVCIS,ioos:station:WAVCIS:CSI16:1,2009-12-11T04:00:00Z,29.4012,-89.0355,9.47,11111222 
WAVCIS,ioos:station:WAVCIS:CSI16:1,2009-12-11T05:00:00Z,29.4012,-89.0355,9.44,11111222 
WAVCIS,ioos:station:WAVCIS:CSI16:1,2009-12-11T06:00:00Z,29.4012,-89.0355,9.407,11111222 
WAVCIS,ioos:station:WAVCIS:CSI16:1,2009-12-11T07:00:00Z,29.4012,-89.0355,9.39,11111222 
WAVCIS,ioos:station:WAVCIS:CSI16:1,2009-12-11T08:00:00Z,29.4012,-89.0355,9.364,11111222 
WAVCIS,ioos:station:WAVCIS:CSI16:1,2009-12-11T09:00:00Z,29.4012,-89.0355,9.34,11111222 
WAVCIS,ioos:station:WAVCIS:CSI16:1,2009-12-11T10:00:00Z,29.4012,-89.0355,9.35,11111222 
WAVCIS,ioos:station:WAVCIS:CSI16:1,2009-12-11T11:00:00Z,29.4012,-89.0355,9.356,11111222 
WAVCIS,ioos:station:WAVCIS:CSI16:1,2009-12-11T12:00:00Z,29.4012,-89.0355,9.393,11111222 
WAVCIS,ioos:station:WAVCIS:CSI16:1,2009-12-11T13:00:00Z,29.4012,-89.0355,9.419,11111222 
WAVCIS,ioos:station:WAVCIS:CSI16:1,2009-12-11T14:00:00Z,29.4012,-89.0355,9.474,11111222 
WAVCIS,ioos:station:WAVCIS:CSI16:1,2009-12-11T15:00:00Z,29.4012,-89.0355,9.514,11111222 
WAVCIS,ioos:station:WAVCIS:CSI16:1,2009-12-11T16:00:00Z,29.4012,-89.0355,9.535,11111222 
WAVCIS,ioos:station:WAVCIS:CSI16:1,2009-12-11T17:00:00Z,29.4012,-89.0355,9.564,11111222 
WAVCIS,ioos:station:WAVCIS:CSI16:1,2009-12-11T18:00:00Z,29.4012,-89.0355,9.593,11111222 
WAVCIS,ioos:station:WAVCIS:CSI16:1,2009-12-11T19:00:00Z,29.4012,-89.0355,9.611,11111222 
WAVCIS,ioos:station:WAVCIS:CSI16:1,2009-12-11T20:00:00Z,29.4012,-89.0355,9.652,11111222 
WAVCIS,ioos:station:WAVCIS:CSI16:1,2009-12-11T21:00:00Z,29.4012,-89.0355,9.693,11111222 
WAVCIS,ioos:station:WAVCIS:CSI16:1,2009-12-11T22:00:00Z,29.4012,-89.0355,9.69,11111222 
WAVCIS,ioos:station:WAVCIS:CSI16:1,2009-12-11T23:00:00Z,29.4012,-89.0355,9.697,11111222 
WAVCIS,ioos:station:WAVCIS:CSI16:1,2009-12-12T00:00:00Z,29.4012,-89.0355,9.691,11111222 
WAVCIS,ioos:station:WAVCIS:CSI16:1,2009-12-12T01:00:00Z,29.4012,-89.0355,9.674,11111222 
WAVCIS,ioos:station:WAVCIS:CSI16:1,2009-12-12T02:00:00Z,29.4012,-89.0355,9.639,11111222 
WAVCIS,ioos:station:WAVCIS:CSI16:1,2009-12-12T03:00:00Z,29.4012,-89.0355,9.619,11111222 
WAVCIS,ioos:station:WAVCIS:CSI16:1,2009-12-12T04:00:00Z,29.4012,-89.0355,9.547,11111222 